Location: Valencia
(39.4696°N, 0.3770°W)
Time: 09:22:13
(UTC+02:00)

ISS - Visible Passes

Search period start: 29 April 2017 00:00
Search period end: 09 May 2017 00:00
Orbit: 401 x 409 km, 51.6° (Epoch: 29 April)

Date Brightness Start Highest point End Pass type
(mag) Time Alt. Az. Time Alt. Az. Time Alt. Az.
04 May -2.6 06:25:04 10° SSW 06:28:05 36° SE 06:31:08 10° ENE visible
05 May -1.6 05:34:18 12° S 05:36:10 19° SE 05:38:33 10° E visible
06 May -3.8 06:17:04 10° SW 06:20:18 83° NW 06:23:35 10° NE visible
07 May -3.2 05:27:04 31° SSW 05:28:14 47° SE 05:31:25 10° ENE visible
08 May -1.8 04:36:59 22° ESE 04:36:59 22° ESE 04:38:57 10° ENE visible
08 May -2.7 06:09:38 10° W 06:12:37 36° NNW 06:15:41 10° NE visible
